FREGAT DEB, 45651

Orbit data source: Space-Track

FREGAT DEB, 45651 is space debris in LEO originally from a launch on Mon, 18 Jul 2011 UTC launched from the Tyuratam Missile And Space Complex (TTMTR). Debris objects in space refer to the collection of defunct objects orbiting the Earth. Examples of debris include non-operational satellites, rocket bodies, and fragments generated from explosions, collisions, or faulty payload assembly.

Loading next visibility...
Identifier
45651, 2011-037AT
Orbit
LEO
Country
Flag of CISCIS
Related business
Manufacturer
Lavochkin
Mission
Spacecraft
Bus & Motor
Unknown
Mass
Unknown
Launch date (UTC)
2011-07-18 (15 years ago)
Launch vehicle
Unknown
Launch site
Tyuratam Missile And Space Complex (TTMTR)
Object type
Payload
Rocket body
Debris
Shape & HBR
Unknown shape, 0.2 m
Radar Cross Section
Small (<0.1 m²)

Expand to show TLE details & history
Last TLE update: 21 hours ago

TLE from 21 hours ago
0 FREGAT DEB
1 45651U 11037AT  26125.58021136  .00026378  00000-0  24807-2 0  9994
2 45651  51.5668 238.5627 1002284 326.2464  27.8309 13.29794536  6308
Epoch: 2026-05-05T13:55Z
TLE epoch observation values (Epoch: 2026-05-05T13:55:30.261Z)
Latitude
-0°
Longitude
166.23359°
Altitude
500.151 km
Speed
7.936 km/s
True Right ascension
15h 54m 15s
True Declination
0° 00' 00"
Sunlit
Object was in full shadow at epoch
Visualization orbit readout
Latitude
Unknown
Longitude
Unknown
Altitude
Unknown
Speed
Unknown
Apparent Right ascension
Unknown
Apparent Declination
Unknown
Sunlit
N/A
Visualization observer readout
Local Sidereal Time
18:23:32
Azimuth
Unknown
Elevation
Unknown
Doppler factor
Unknown
Orbital elements
Apogee altitude
1,902.35 km
Perigee altitude
393.682 km
Semi-major axis
7,526.153 km
Eccentricity
0.10023
Inclination
51.5668°
RAAN
238.5627°
Arg. of periapsis
326.2464°
True anomaly
33.84604°
Mean anomaly
27.8309°
Eccentric anomaly
30.76869°
Mean motion
3.32417 °/min
Orbital period
108.3 mins
BSTAR
0.0024807
Loading maneuver chart data...
Computing Atmospheric mass density...
Loading historical data...
Loading historical data...
Loading historical data...
Loading historical data...
Loading historical data...
Loading historical data...
Loading historical data...

Documentation

Showing up to 5 results
|